Regional Weather Roundup
Issued by NWS

Home | Current Version | Previous Version | Text Only | Print | Product List | Glossary On
Versions: 1 2 3 4 5 6 7 8 9 10 11 12 13 14 15 16 17 18 19 20 21 22 23 24 25 26 27 28 29 30 31 32 33 34 35 36 37 38 39 40 41 42 43 44 45 46 47 48 49 50
000
ASUS45 KABQ 301710
RWRNM
NEW MEXICO REGIONAL WEATHER ROUNDUP
NATIONAL WEATHER SERVICE ALBUQUERQUE NM
1100 AM MDT SAT MAY 30 2015

NOTE: "FAIR" MEANS FEW OR NO CLOUDS BELOW 12,000 FEET AGL WITH NO
       SIGNIFICANT WEATHER OR OBSTRUCTIONS TO VISION.

      THIS PRODUCT IS RELEASED AS TWO VERSIONS.  ONE VERSION NEAR
      THE TOP OF THE HOUR CONTAINING PRELIMINARY DATA FROM ALBUQUERQUE
      AND OTHER STATIONS.  A FINAL VERSION WITH ADDITIONAL DATA IS
      ISSUED ABOUT 10 MINUTES AFTER THE HOUR.

NMZ501-503-504-510>518-301800-
NORTHWEST PLATEAU/NORTHCENTRAL MOUNTAINS

CITY           SKY/WX    TMP DP  RH WIND       PRES   REMARKS
FARMINGTON     SUNNY     70  33  25 E3        30.26S
LOS ALAMOS     MOSUNNY   58  43  56 S13G18    30.40S
SANTA FE       MOSUNNY   65  42  43 S15G23    30.35F
TAOS           PTSUNNY   61  39  44 SW5       30.39S
ANGEL FIRE     FAIR      56  36  45 W12G21    30.42S

$$
NMZ402-403-502-505>509-301800-
WESTCENTRAL MOUNTAINS/SOUTHWEST MOUNTAINS

CITY           SKY/WX    TMP DP  RH WIND       PRES   REMARKS
GALLUP         SUNNY     72  28  19 CALM      30.31S
GRANTS         SUNNY     69  40  34 SE14      30.35S
SILVER CITY      N/A     79  37  22 SE15      30.25S

$$
NMZ407-409-411-412-301800-
SOUTHERN DESERTS

CITY           SKY/WX    TMP DP  RH WIND       PRES   REMARKS
LORDSBURG      FAIR      82  45  26 E14G21    30.16S
DEMING         SUNNY     80  48  32 E17G25    30.19S
LAS CRUCES     SUNNY     80  47  31 SE12G20   30.20S
HOLLOMAN AFB   SUNNY     79  46  30 S13       30.18S
ALAMOGORDO     SUNNY     77  46  33 CALM      30.20S
T OR C         SUNNY     74  46  36 N13       30.23F

$$
NMZ519>523-301800-
CENTRAL VALLEYS/CENTRAL HIGHLANDS

CITY           SKY/WX    TMP DP  RH WIND       PRES   REMARKS
ALBUQUERQUE    MOSUNNY   70  44  39 SE9G18    30.29F
DOUBLE EAGLE   MOSUNNY   68  46  45 E13       30.33S
MORIARTY ARPT  CLOUDY    63  44  49 SE7       30.38S
CLINES CORNERS MOSUNNY   61  45  55 SE9       30.38S
BELEN          FAIR      71  42  35 SW3       30.29S
SOCORRO        FAIR      71  45  38 CALM      30.27F

$$
NMZ524>526-539-540-301800-
SOUTHCENTRAL MOUNTAINS

CITY           SKY/WX    TMP DP  RH WIND       PRES   REMARKS
RUIDOSO        MOSUNNY   57  45  62 SE10      30.40F

$$
NMZ527>531-301800-
NORTHEAST HIGHLANDS/NORTHEAST PLAINS

CITY           SKY/WX    TMP DP  RH WIND       PRES   REMARKS
LAS VEGAS      MOSUNNY   60  44  55 SW9G17    30.38S
RATON          SUNNY     62  44  51 SW12G18   30.33S
CLAYTON        CLOUDY    58  49  72 E5        30.33S

$$
NMZ532>537-301800-
EASTCENTRAL PLAINS

CITY           SKY/WX    TMP DP  RH WIND       PRES   REMARKS
TUCUMCARI      CLOUDY    61  50  67 E10       30.31F
CANNON AFB     SUNNY     62  53  71 NE16      30.29S
CLOVIS AIRPORT SUNNY     61  52  72 N18       30.29S

$$
NMZ028-029-538-301800-
SOUTHEAST PLAINS

CITY           SKY/WX    TMP DP  RH WIND       PRES   REMARKS
ROSWELL        CLOUDY    69  55  60 NE10      30.27S
ARTESIA        MOSUNNY   68  55  64 N8        30.26S
CARLSBAD       SUNNY     73  54  51 VRB5      30.22F
HOBBS          PTSUNNY   66  57  72 N13G18    30.26R


$$


USA.gov is the U.S. government's official web portal to all federal, state and local government web resources and services.